Location: Hylvaty SDH
(49.9612°N, 16.4057°E)
Time: 18:43:39
(UTC+02:00)

deb Explorer IX - All Passes

Search period start: 09 August 2020 00:00
Search period end: 19 August 2020 00:00
Orbit: 542 x 1102 km, 38.8° (Epoch: 08 August)

Date Brightness Start Highest point End Pass type
(mag) Time Alt. Az. Time Alt. Az. Time Alt. Az.
09 Aug - 14:38:58 10° S 14:41:32 14° SSE 14:43:58 10° SE daylight
09 Aug - 16:23:53 10° SW 16:27:28 20° S 16:30:46 10° SE daylight
09 Aug - 18:10:33 10° SW 18:13:19 16° SSW 18:15:57 10° SSE daylight
10 Aug - 14:15:37 10° SSW 14:18:31 15° SSE 14:21:13 10° SE daylight
10 Aug - 16:00:41 10° SW 16:04:28 21° S 16:07:55 10° SE daylight
10 Aug - 17:47:24 10° SW 17:50:21 17° SSW 17:53:05 10° SSE daylight
11 Aug - 13:52:16 10° SSW 13:55:27 15° SSE 13:58:26 10° SE daylight
11 Aug - 15:37:27 10° SW 15:41:28 22° S 15:45:03 10° SE daylight
11 Aug - 17:24:14 10° WSW 17:27:20 17° SSW 17:30:14 10° SSE daylight
12 Aug - 13:28:53 10° SSW 13:32:23 16° SSE 13:35:37 10° ESE daylight
12 Aug - 15:14:11 10° SW 15:18:24 23° S 15:22:11 10° SE daylight
12 Aug - 17:01:01 10° WSW 17:04:19 18° SSW 17:07:22 10° SSE daylight
13 Aug - 13:05:30 10° SSW 13:09:17 17° SSE 13:12:45 10° ESE daylight
13 Aug - 14:50:54 10° SW 14:55:21 24° S 14:59:18 10° SE daylight
13 Aug - 16:37:46 10° WSW 16:41:17 19° SSW 16:44:29 10° SSE daylight
14 Aug - 12:42:07 10° SSW 12:46:10 18° SSE 12:49:52 10° ESE daylight
14 Aug - 14:27:35 10° SW 14:32:15 25° S 14:36:24 10° SE daylight
14 Aug - 16:14:30 10° WSW 16:18:13 19° SSW 16:21:36 10° SSE daylight
15 Aug - 12:18:44 10° SSW 12:23:01 19° SSE 12:26:57 10° ESE daylight
15 Aug - 14:04:16 10° SW 14:09:09 26° S 14:13:28 10° ESE daylight
15 Aug - 15:51:12 10° WSW 15:55:09 20° SSW 15:58:42 10° SSE daylight
16 Aug - 11:55:19 10° SSW 11:59:51 20° SSE 12:04:00 10° ESE daylight
16 Aug - 13:40:55 10° SW 13:46:01 27° S 13:50:31 10° ESE daylight
16 Aug - 15:27:53 10° WSW 15:32:02 21° SSW 15:35:46 10° SSE daylight
17 Aug - 11:31:55 10° SSW 11:36:40 20° SSE 11:41:01 10° ESE daylight
17 Aug - 13:17:34 10° SW 13:22:51 28° S 13:27:33 10° ESE daylight
17 Aug - 15:04:32 10° WSW 15:08:55 22° SSW 15:12:50 10° SSE daylight
18 Aug - 11:08:31 10° SSW 11:13:27 21° SSE 11:18:00 10° ESE daylight
18 Aug - 12:54:11 10° SW 12:59:40 29° S 13:04:33 10° ESE daylight
18 Aug - 14:41:10 10° WSW 14:45:46 22° SSW 14:49:52 10° SSE daylight
